NKS390 KFLL-KTPA

Flight info

Callsign NKS390
Flight time 0h 38m
Altitude 24000
Route BNICE2 COREA BLFRG3
Aircraft A321/M-SDE3FGHIRWY/LB1

Departure

Time 2026-05-04 02:51
Airport Fort Lauderdale Hollywood International Airport (KFLL)

Arrival

Time 2026-05-04 03:29
Airport Tampa International Airport (KTPA)
Time Latitude Longitude Altitude Speed Heading
2026-05-04 02:11 26.06876 -80.14557 16 ft 0 kts 24°
2026-05-04 02:35 26.06857 -80.14566 16 ft 4 kts 24°
2026-05-04 02:35 26.06838 -80.14576 17 ft 4 kts 355°
2026-05-04 02:35 26.06823 -80.14565 16 ft 4 kts 288°
2026-05-04 02:36 26.06819 -80.14537 16 ft 4 kts 270°
2026-05-04 02:36 26.06819 -80.14507 16 ft 4 kts 270°
2026-05-04 02:36 26.06818 -80.14481 16 ft 1 kts 270°
2026-05-04 02:36 26.06818 -80.14457 16 ft 1 kts 270°
2026-05-04 02:37 26.06818 -80.14456 16 ft 0 kts 270°
2026-05-04 02:40 26.06819 -80.14485 16 ft 10 kts 270°
2026-05-04 02:40 26.06819 -80.14513 16 ft 5 kts 270°
2026-05-04 02:41 26.06815 -80.14568 17 ft 6 kts 287°
2026-05-04 02:41 26.06843 -80.14615 16 ft 9 kts 309°
2026-05-04 02:41 26.06904 -80.14674 17 ft 13 kts 323°
2026-05-04 02:41 26.06978 -80.14742 16 ft 14 kts 318°
2026-05-04 02:42 26.07054 -80.14822 16 ft 16 kts 315°
2026-05-04 02:42 26.07155 -80.14855 16 ft 16 kts
2026-05-04 02:42 26.07270 -80.14854 16 ft 17 kts
2026-05-04 02:42 26.07366 -80.14882 16 ft 15 kts 307°
2026-05-04 02:43 26.07429 -80.14978 17 ft 16 kts 315°
2026-05-04 02:43 26.07491 -80.15095 16 ft 22 kts 272°
2026-05-04 02:43 26.07491 -80.15274 16 ft 24 kts 270°
2026-05-04 02:43 26.07491 -80.15461 16 ft 25 kts 270°
2026-05-04 02:44 26.07492 -80.15654 16 ft 25 kts 270°
2026-05-04 02:44 26.07493 -80.15854 16 ft 26 kts 270°
2026-05-04 02:44 26.07495 -80.16050 16 ft 21 kts 270°
2026-05-04 02:44 26.07495 -80.16180 16 ft 17 kts 270°
2026-05-04 02:45 26.07496 -80.16315 16 ft 18 kts 270°
2026-05-04 02:45 26.07497 -80.16460 16 ft 19 kts 270°
2026-05-04 02:45 26.07497 -80.16592 16 ft 12 kts 270°
2026-05-04 02:45 26.07540 -80.16640 16 ft 0 kts 346°
2026-05-04 02:46 26.07544 -80.16641 16 ft 3 kts 347°
2026-05-04 02:46 26.07582 -80.16643 16 ft 0 kts
2026-05-04 02:49 26.07603 -80.16643 17 ft 7 kts
2026-05-04 02:49 26.07668 -80.16642 20 ft 10 kts
2026-05-04 02:50 26.07695 -80.16582 18 ft 10 kts 85°
2026-05-04 02:50 26.07695 -80.16498 19 ft 15 kts 90°
2026-05-04 02:50 26.07693 -80.16122 19 ft 87 kts 90°
2026-05-04 02:50 26.07688 -80.15187 17 ft 151 kts 90°
2026-05-04 02:51 26.07680 -80.14358 233 ft 163 kts 89°
2026-05-04 02:51 26.07676 -80.13123 1062 ft 159 kts 87°
2026-05-04 02:51 26.07724 -80.11866 1577 ft 170 kts 86°
2026-05-04 02:51 26.07856 -80.10505 1929 ft 185 kts 72°
2026-05-04 02:52 26.08306 -80.09090 2220 ft 204 kts 71°
2026-05-04 02:52 26.09336 -80.07200 2489 ft 236 kts 38°
2026-05-04 02:52 26.10338 -80.06588 2687 ft 252 kts 20°
2026-05-04 02:52 26.12034 -80.05903 3261 ft 264 kts 19°
2026-05-04 02:53 26.13779 -80.05206 4049 ft 269 kts 18°
2026-05-04 02:53 26.15633 -80.04850 4818 ft 273 kts 355°
2026-05-04 02:53 26.17487 -80.05338 5601 ft 275 kts 339°
2026-05-04 02:53 26.19303 -80.06052 6405 ft 278 kts 339°
2026-05-04 02:54 26.21050 -80.06976 7172 ft 280 kts 323°
2026-05-04 02:54 26.22490 -80.08436 7928 ft 281 kts 306°
2026-05-04 02:54 26.23474 -80.10305 8675 ft 281 kts 290°
2026-05-04 02:54 26.24186 -80.12340 9412 ft 283 kts 289°
2026-05-04 02:55 26.25532 -80.16559 10446 ft 304 kts 280°
2026-05-04 02:55 26.25893 -80.18953 10643 ft 323 kts 277°
2026-05-04 02:55 26.26248 -80.21463 11211 ft 330 kts 277°
2026-05-04 02:56 26.26607 -80.23996 11911 ft 333 kts 277°
2026-05-04 02:56 26.26971 -80.26554 12641 ft 334 kts 277°
2026-05-04 02:56 26.27338 -80.29124 13342 ft 336 kts 277°
2026-05-04 02:56 26.27707 -80.31711 14035 ft 339 kts 277°
2026-05-04 02:57 26.28075 -80.34310 14711 ft 341 kts 277°
2026-05-04 02:57 26.28439 -80.36892 15384 ft 343 kts 277°
2026-05-04 02:57 26.28810 -80.39523 16052 ft 345 kts 277°
2026-05-04 02:57 26.29185 -80.42171 16710 ft 347 kts 276°
2026-05-04 02:58 26.29566 -80.44842 17352 ft 350 kts 276°
2026-05-04 02:58 26.29947 -80.47530 17979 ft 352 kts 276°
2026-05-04 02:58 26.30328 -80.50227 18610 ft 354 kts 276°
2026-05-04 02:58 26.30710 -80.52943 19216 ft 356 kts 276°
2026-05-04 02:59 26.31095 -80.55685 19801 ft 358 kts 276°
2026-05-04 02:59 26.31479 -80.58434 20361 ft 361 kts 276°
2026-05-04 02:59 26.31867 -80.61206 20912 ft 363 kts 275°
2026-05-04 02:59 26.32258 -80.64005 21447 ft 366 kts 275°
2026-05-04 03:00 26.32652 -80.66817 21914 ft 368 kts 275°
2026-05-04 03:00 26.33048 -80.69633 22036 ft 368 kts 275°
2026-05-04 03:00 26.33445 -80.72450 22063 ft 368 kts 275°
2026-05-04 03:00 26.33839 -80.75261 22063 ft 366 kts 275°
2026-05-04 03:01 26.34231 -80.78069 22063 ft 366 kts 275°
2026-05-04 03:01 26.34621 -80.80880 22065 ft 366 kts 275°
2026-05-04 03:01 26.35009 -80.83689 22071 ft 367 kts 275°
2026-05-04 03:01 26.35392 -80.86462 22072 ft 366 kts 275°
2026-05-04 03:02 26.35819 -80.89266 22073 ft 368 kts 279°
2026-05-04 03:02 26.36680 -80.91970 22071 ft 373 kts 291°
2026-05-04 03:02 26.38074 -80.94441 22076 ft 381 kts 303°
2026-05-04 03:02 26.39939 -80.96579 22077 ft 387 kts 310°
2026-05-04 03:03 26.41908 -80.98631 22082 ft 387 kts 310°
2026-05-04 03:03 26.43872 -81.00687 22082 ft 387 kts 310°
2026-05-04 03:03 26.45835 -81.02745 22082 ft 387 kts 310°
2026-05-04 03:03 26.47795 -81.04805 22082 ft 387 kts 310°
2026-05-04 03:04 26.49760 -81.06868 22088 ft 387 kts 310°
2026-05-04 03:04 26.51720 -81.08928 22083 ft 387 kts 310°
2026-05-04 03:04 26.53677 -81.10987 22080 ft 386 kts 310°
2026-05-04 03:04 26.55629 -81.13047 22085 ft 386 kts 310°
2026-05-04 03:05 26.57581 -81.15107 22091 ft 386 kts 310°
2026-05-04 03:05 26.59538 -81.17174 22090 ft 387 kts 310°
2026-05-04 03:05 26.61489 -81.19234 22096 ft 386 kts 309°
2026-05-04 03:05 26.63428 -81.21311 22100 ft 383 kts 306°
2026-05-04 03:06 26.65123 -81.23577 22102 ft 379 kts 302°
2026-05-04 03:06 26.66773 -81.25879 22099 ft 379 kts 302°
2026-05-04 03:06 26.68424 -81.28175 22099 ft 379 kts 302°
2026-05-04 03:06 26.70075 -81.30470 22102 ft 378 kts 302°
2026-05-04 03:07 26.71724 -81.32760 22106 ft 378 kts 302°
2026-05-04 03:07 26.73376 -81.35055 22104 ft 378 kts 302°
2026-05-04 03:07 26.75028 -81.37351 22111 ft 379 kts 302°
2026-05-04 03:07 26.76680 -81.39648 22106 ft 379 kts 302°
2026-05-04 03:08 26.78333 -81.41948 22112 ft 379 kts 302°
2026-05-04 03:08 26.79986 -81.44248 22110 ft 379 kts 302°
2026-05-04 03:08 26.81638 -81.46547 22110 ft 376 kts 302°
2026-05-04 03:08 26.83266 -81.48808 22108 ft 371 kts 302°
2026-05-04 03:09 26.84876 -81.51058 22111 ft 369 kts 302°
2026-05-04 03:09 26.86456 -81.53269 22105 ft 369 kts 301°
2026-05-04 03:09 26.88058 -81.55512 22108 ft 369 kts 301°
2026-05-04 03:09 26.89672 -81.57767 21898 ft 361 kts 302°
2026-05-04 03:10 26.91228 -81.59935 21647 ft 353 kts 301°
2026-05-04 03:10 26.92726 -81.62019 21398 ft 344 kts 301°
2026-05-04 03:10 26.94121 -81.63963 21165 ft 341 kts 301°
2026-05-04 03:10 26.95600 -81.66032 20913 ft 339 kts 301°
2026-05-04 03:11 26.97071 -81.68092 20663 ft 338 kts 301°
2026-05-04 03:11 26.98532 -81.70145 20412 ft 336 kts 301°
2026-05-04 03:11 26.99989 -81.72194 20162 ft 335 kts 301°
2026-05-04 03:11 27.01440 -81.74233 19913 ft 334 kts 301°
2026-05-04 03:12 27.02885 -81.76265 19663 ft 332 kts 301°
2026-05-04 03:12 27.04325 -81.78290 19413 ft 331 kts 301°
2026-05-04 03:12 27.05757 -81.80304 19161 ft 329 kts 301°
2026-05-04 03:12 27.07183 -81.82306 18909 ft 328 kts 301°
2026-05-04 03:13 27.08736 -81.84204 18658 ft 334 kts 311°
2026-05-04 03:13 27.10586 -81.85806 18407 ft 336 kts 315°
2026-05-04 03:13 27.12458 -81.87375 18157 ft 335 kts 315°
2026-05-04 03:13 27.14318 -81.88938 17890 ft 332 kts 315°
2026-05-04 03:14 27.16158 -81.90486 17437 ft 330 kts 315°
2026-05-04 03:14 27.17993 -81.92038 16921 ft 330 kts 315°
2026-05-04 03:14 27.19825 -81.93590 16472 ft 329 kts 315°
2026-05-04 03:14 27.21647 -81.95133 16023 ft 327 kts 316°
2026-05-04 03:15 27.23458 -81.96671 15578 ft 325 kts 316°
2026-05-04 03:15 27.25263 -81.98202 15133 ft 324 kts 316°
2026-05-04 03:15 27.27034 -81.99706 14697 ft 322 kts 316°
2026-05-04 03:15 27.28837 -82.01237 14248 ft 320 kts 316°
2026-05-04 03:16 27.30614 -82.02746 13797 ft 319 kts 316°
2026-05-04 03:16 27.32383 -82.04249 13379 ft 317 kts 317°
2026-05-04 03:16 27.34116 -82.05721 12960 ft 315 kts 317°
2026-05-04 03:16 27.35884 -82.07223 12542 ft 314 kts 317°
2026-05-04 03:17 27.37613 -82.08704 12128 ft 311 kts 316°
2026-05-04 03:17 27.39300 -82.10224 11716 ft 309 kts 315°
2026-05-04 03:17 27.40948 -82.11762 11311 ft 307 kts 315°
2026-05-04 03:17 27.42575 -82.13298 11029 ft 301 kts 316°
2026-05-04 03:18 27.44131 -82.14766 10987 ft 293 kts 315°
2026-05-04 03:18 27.45647 -82.16309 11001 ft 293 kts 313°
2026-05-04 03:18 27.47108 -82.17902 11000 ft 292 kts 311°
2026-05-04 03:18 27.48549 -82.19515 11000 ft 292 kts 311°
2026-05-04 03:19 27.49972 -82.21162 11005 ft 299 kts 307°
2026-05-04 03:19 27.51284 -82.23016 10751 ft 305 kts 304°
2026-05-04 03:19 27.52567 -82.24925 10288 ft 305 kts 304°
2026-05-04 03:19 27.53803 -82.26813 9813 ft 292 kts 304°
2026-05-04 03:20 27.54978 -82.28642 9340 ft 287 kts 304°
2026-05-04 03:20 27.56134 -82.30493 8847 ft 291 kts 304°
2026-05-04 03:20 27.57275 -82.32364 8348 ft 288 kts 303°
2026-05-04 03:20 27.58391 -82.34213 7842 ft 283 kts 303°
2026-05-04 03:21 27.59490 -82.36040 7335 ft 281 kts 303°
2026-05-04 03:21 27.60576 -82.37864 6836 ft 280 kts 303°
2026-05-04 03:21 27.61663 -82.39695 6345 ft 281 kts 304°
2026-05-04 03:21 27.62743 -82.41523 5846 ft 278 kts 304°
2026-05-04 03:22 27.63807 -82.43333 5319 ft 276 kts 304°
2026-05-04 03:22 27.64852 -82.45140 4797 ft 274 kts 304°
2026-05-04 03:22 27.65871 -82.46941 4287 ft 273 kts 304°
2026-05-04 03:22 27.66870 -82.48745 4009 ft 271 kts 303°
2026-05-04 03:23 27.67864 -82.50570 3993 ft 275 kts 304°
2026-05-04 03:23 27.68860 -82.52410 3982 ft 275 kts 303°
2026-05-04 03:23 27.69903 -82.54214 3994 ft 273 kts 313°
2026-05-04 03:23 27.71419 -82.55343 3992 ft 265 kts 348°
2026-05-04 03:24 27.73132 -82.55337 3990 ft 258 kts 16°
2026-05-04 03:24 27.74846 -82.54934 3975 ft 244 kts
2026-05-04 03:24 27.76476 -82.54875 3849 ft 226 kts
2026-05-04 03:24 27.78000 -82.54852 3581 ft 213 kts
2026-05-04 03:25 27.79456 -82.54808 3302 ft 207 kts
2026-05-04 03:25 27.80862 -82.54762 3050 ft 195 kts
2026-05-04 03:25 27.82174 -82.54719 2790 ft 183 kts
2026-05-04 03:25 27.83414 -82.54677 2555 ft 172 kts
2026-05-04 03:26 27.84563 -82.54638 2326 ft 160 kts
2026-05-04 03:26 27.85656 -82.54600 2122 ft 155 kts
2026-05-04 03:26 27.86727 -82.54562 1920 ft 154 kts
2026-05-04 03:26 27.87784 -82.54526 1735 ft 147 kts
2026-05-04 03:27 27.88794 -82.54492 1517 ft 143 kts
2026-05-04 03:27 27.89785 -82.54459 1327 ft 142 kts
2026-05-04 03:27 27.90771 -82.54425 1107 ft 141 kts
2026-05-04 03:27 27.91772 -82.54393 939 ft 143 kts
2026-05-04 03:28 27.92758 -82.54359 753 ft 144 kts
2026-05-04 03:28 27.93755 -82.54325 573 ft 143 kts
2026-05-04 03:28 27.94749 -82.54293 402 ft 143 kts
2026-05-04 03:28 27.95744 -82.54260 205 ft 142 kts
2026-05-04 03:29 27.96721 -82.54222 49 ft 132 kts
2026-05-04 03:29 27.97503 -82.54196 48 ft 89 kts
2026-05-04 03:29 27.97965 -82.54177 47 ft 48 kts
2026-05-04 03:29 27.98186 -82.54158 49 ft 19 kts 14°
2026-05-04 03:30 27.98276 -82.54110 50 ft 9 kts 39°
2026-05-04 03:30 27.98278 -82.54052 48 ft 10 kts 141°
2026-05-04 03:30 27.98216 -82.54048 48 ft 8 kts 182°
2026-05-04 03:30 27.98159 -82.54050 48 ft 8 kts 182°
2026-05-04 03:31 27.98114 -82.54052 47 ft 0 kts 181°
2026-05-04 03:31 27.98111 -82.54052 47 ft 1 kts 182°
2026-05-04 03:31 27.98107 -82.54052 47 ft 0 kts 182°
2026-05-04 03:32 27.98099 -82.54052 47 ft 2 kts 182°
2026-05-04 03:32 27.98049 -82.54054 47 ft 11 kts 181°
2026-05-04 03:32 27.97964 -82.54057 47 ft 13 kts 181°
2026-05-04 03:33 27.97864 -82.54060 47 ft 15 kts 182°
2026-05-04 03:33 27.97751 -82.54064 47 ft 17 kts 181°
2026-05-04 03:33 27.97625 -82.54068 46 ft 19 kts 181°
2026-05-04 03:33 27.97557 -82.54068 47 ft 12 kts 168°
2026-05-04 03:34 27.97520 -82.53992 47 ft 13 kts 88°
2026-05-04 03:34 27.97489 -82.53882 44 ft 17 kts 121°
2026-05-04 03:34 27.97427 -82.53776 49 ft 15 kts 123°
2026-05-04 03:34 27.97374 -82.53682 53 ft 13 kts 121°
2026-05-04 03:35 27.97334 -82.53581 50 ft 16 kts 108°
2026-05-04 03:35 27.97315 -82.53435 46 ft 20 kts 92°
2026-05-04 03:35 27.97327 -82.53331 43 ft 12 kts 42°
2026-05-04 03:35 27.97401 -82.53345 41 ft 11 kts 323°
2026-05-04 03:36 27.97472 -82.53365 41 ft 11 kts
2026-05-04 03:36 27.97509 -82.53317 43 ft 7 kts 87°
2026-05-04 03:36 27.97508 -82.53288 43 ft 3 kts 91°
2026-05-04 03:36 27.97508 -82.53276 43 ft 1 kts 91°
2026-05-04 03:37 27.97508 -82.53271 43 ft 0 kts 91°